�������l�o���
Date,Time,MP-1(��Sv/h),MP-2(��Sv/h),MP-3(��Sv/h),MP-4(��Sv/h),MP-5(��Sv/h),MP-6(��Sv/h),MP-7(��Sv/h),MP-8(��Sv/h),����,����(m/s),���J
2021/05/05,00:00,0.623,0.923,0.583,1.128,0.798,0.371,0.647,0.607,��,2.0,��
2021/05/05,00:10,0.622,0.922,0.582,1.128,0.800,0.373,0.647,0.607,��쐼,0.9,��
2021/05/05,00:20,0.623,0.922,0.583,1.129,0.798,0.373,0.647,0.606,�k,0.9,��
2021/05/05,00:30,0.623,0.923,0.583,1.130,0.799,0.370,0.647,0.605,�k,2.0,��
2021/05/05,00:40,0.622,0.923,0.582,1.130,0.799,0.372,0.646,0.605,�k,2.9,��
2021/05/05,00:50,0.623,0.923,0.583,1.131,0.796,0.372,0.649,0.607,�k,3.4,��
2021/05/05,01:00,0.622,0.923,0.582,1.130,0.797,0.371,0.646,0.609,�k�k��,4.8,��
2021/05/05,01:10,0.623,0.923,0.584,1.129,0.796,0.372,0.645,0.606,�k,4.1,��
2021/05/05,01:20,0.623,0.924,0.583,1.131,0.798,0.371,0.648,0.606,�k�k��,3.2,��
2021/05/05,01:30,0.624,0.923,0.582,1.128,0.796,0.371,0.647,0.606,�k,2.3,��
2021/05/05,01:40,0.624,0.923,0.581,1.129,0.797,0.372,0.646,0.607,�k,3.1,��
2021/05/05,01:50,0.622,0.921,0.582,1.128,0.797,0.371,0.647,0.605,�k,3.2,��
2021/05/05,02:00,0.623,0.922,0.583,1.128,0.798,0.372,0.647,0.606,�k,3.1,��
2021/05/05,02:10,0.624,0.922,0.580,1.130,0.797,0.372,0.647,0.606,�k,3.0,��
2021/05/05,02:20,0.624,0.923,0.582,1.129,0.798,0.372,0.647,0.607,�k,2.0,��
2021/05/05,02:30,0.624,0.921,0.583,1.131,0.797,0.371,0.647,0.607,���k��,0.9,��
2021/05/05,02:40,0.625,0.921,0.581,1.129,0.799,0.372,0.647,0.606,�k��,1.4,��
2021/05/05,02:50,0.623,0.922,0.581,1.132,0.797,0.374,0.647,0.607,���k��,1.2,��
2021/05/05,03:00,0.624,0.920,0.583,1.130,0.797,0.372,0.646,0.606,��,0.9,��
2021/05/05,03:10,0.624,0.921,0.584,1.130,0.800,0.372,0.647,0.607,�k��,0.6,��
2021/05/05,03:20,0.624,0.920,0.582,1.129,0.798,0.371,0.647,0.606,�k�k��,1.5,��
2021/05/05,03:30,0.621,0.921,0.582,1.130,0.797,0.371,0.646,0.606,�k,1.4,��
2021/05/05,03:40,0.621,0.920,0.581,1.130,0.799,0.370,0.646,0.607,�k,1.2,��
2021/05/05,03:50,0.623,0.920,0.583,1.128,0.798,0.372,0.647,0.607,-,CALM,��
2021/05/05,04:00,0.623,0.923,0.583,1.128,0.798,0.372,0.646,0.608,�쐼,1.1,��
2021/05/05,04:10,0.622,0.921,0.583,1.130,0.798,0.372,0.644,0.607,���쐼,1.4,��
2021/05/05,04:20,0.624,0.923,0.584,1.129,0.797,0.371,0.647,0.607,���쐼,1.2,��
2021/05/05,04:30,0.622,0.920,0.580,1.127,0.800,0.371,0.648,0.606,�쐼,1.4,��
2021/05/05,04:40,0.623,0.921,0.580,1.129,0.797,0.370,0.647,0.605,�쐼,1.2,��
2021/05/05,04:50,0.622,0.924,0.581,1.131,0.797,0.371,0.647,0.606,��쐼,1.1,��
2021/05/05,05:00,0.623,0.922,0.581,1.129,0.796,0.371,0.647,0.606,��,1.2,��
2021/05/05,05:10,0.622,0.921,0.581,1.129,0.795,0.370,0.646,0.604,�쓌,1.4,��
2021/05/05,05:20,0.622,0.923,0.581,1.130,0.797,0.371,0.644,0.606,�k,0.6,��
2021/05/05,05:30,0.623,0.920,0.581,1.129,0.797,0.370,0.647,0.607,���k��,0.9,��
2021/05/05,05:40,0.623,0.922,0.581,1.131,0.798,0.371,0.648,0.607,�k�k��,0.9,��
2021/05/05,05:50,0.623,0.923,0.582,1.129,0.797,0.371,0.648,0.607,�쓌,0.8,��
2021/05/05,06:00,0.624,0.923,0.583,1.128,0.799,0.370,0.647,0.608,�쓌,1.4,��
2021/05/05,06:10,0.624,0.923,0.582,1.129,0.798,0.370,0.648,0.607,���쓌,1.5,��
2021/05/05,06:20,0.625,0.924,0.583,1.128,0.798,0.371,0.648,0.607,���쓌,1.4,��
2021/05/05,06:30,0.622,0.924,0.583,1.131,0.799,0.372,0.649,0.606,���쓌,1.5,��
2021/05/05,06:40,0.625,0.921,0.582,1.131,0.797,0.372,0.648,0.607,���쓌,1.2,��
2021/05/05,06:50,0.623,0.925,0.583,1.132,0.799,0.371,0.649,0.607,���쓌,1.7,��
2021/05/05,07:00,0.625,0.923,0.585,1.130,0.800,0.370,0.649,0.608,�쓌,1.9,��
2021/05/05,07:10,0.626,0.924,0.584,1.130,0.799,0.369,0.649,0.607,�쓌,2.0,��
2021/05/05,07:20,0.624,0.922,0.584,1.130,0.799,0.368,0.648,0.608,��쓌,2.0,��
2021/05/05,07:30,0.625,0.922,0.584,1.133,0.799,0.370,0.648,0.608,��쓌,2.6,��
2021/05/05,07:40,0.624,0.921,0.583,1.131,0.800,0.370,0.648,0.608,��쓌,2.6,��
2021/05/05,07:50,0.624,0.921,0.583,1.132,0.801,0.370,0.646,0.608,��쓌,3.3,��
2021/05/05,08:00,0.624,0.923,0.583,1.132,0.800,0.370,0.648,0.607,�쓌,3.4,��
2021/05/05,08:10,0.625,0.923,0.583,1.132,0.801,0.369,0.647,0.606,�쓌,4.2,��
2021/05/05,08:20,0.625,0.924,0.583,1.132,0.800,0.371,0.647,0.606,�쓌,4.2,��
2021/05/05,08:30,0.625,0.923,0.581,1.133,0.799,0.370,0.646,0.608,��쓌,5.3,��
2021/05/05,08:40,0.625,0.924,0.585,1.133,0.798,0.370,0.648,0.605,��쓌,7.3,��
2021/05/05,08:50,0.624,0.925,0.584,1.133,0.800,0.370,0.647,0.607,��쓌,9.5,��
2021/05/05,09:00,0.625,0.924,0.583,1.131,0.797,0.370,0.647,0.605,��쓌,10.6,��
2021/05/05,09:10,0.624,0.923,0.583,1.132,0.798,0.370,0.647,0.605,��,11.6,��
2021/05/05,09:20,0.623,0.926,0.582,1.132,0.798,0.371,0.646,0.605,��쓌,11.6,�L
2021/05/05,09:30,0.623,0.925,0.582,1.130,0.798,0.371,0.646,0.605,��쓌,10.5,��
2021/05/05,09:40,0.624,0.923,0.582,1.132,0.797,0.369,0.648,0.605,��쓌,11.9,��
2021/05/05,09:50,0.622,0.925,0.581,1.132,0.799,0.371,0.648,0.604,��쓌,13.8,��
2021/05/05,10:00,0.622,0.925,0.583,1.132,0.800,0.370,0.647,0.603,��쓌,11.1,��
2021/05/05,10:10,0.623,0.924,0.583,1.132,0.798,0.372,0.649,0.605,��,10.2,��
2021/05/05,10:20,0.624,0.924,0.581,1.132,0.798,0.372,0.647,0.604,��,10.7,��
2021/05/05,10:30,0.624,0.924,0.581,1.133,0.798,0.373,0.648,0.606,��,9.4,��
2021/05/05,10:40,0.624,0.925,0.581,1.132,0.799,0.372,0.648,0.604,��,11.8,��
2021/05/05,10:50,0.624,0.924,0.583,1.131,0.798,0.372,0.647,0.605,��,11.3,��
2021/05/05,11:00,0.624,0.922,0.582,1.131,0.797,0.371,0.649,0.606,��,11.7,��
2021/05/05,11:10,0.623,0.925,0.581,1.133,0.800,0.372,0.648,0.605,��,9.9,��
2021/05/05,11:20,0.624,0.923,0.584,1.132,0.799,0.371,0.649,0.605,��,8.6,��
2021/05/05,11:30,0.623,0.924,0.583,1.131,0.801,0.372,0.647,0.606,��,9.4,��
2021/05/05,11:40,0.624,0.925,0.582,1.132,0.800,0.372,0.648,0.606,��,10.3,��
2021/05/05,11:50,0.624,0.925,0.584,1.129,0.801,0.372,0.648,0.606,��,10.0,��
2021/05/05,12:00,0.623,0.925,0.583,1.131,0.798,0.373,0.648,0.606,��,8.3,��
2021/05/05,12:10,0.626,0.923,0.583,1.130,0.799,0.372,0.649,0.605,��,5.6,�L
2021/05/05,12:20,0.624,0.925,0.584,1.131,0.800,0.373,0.648,0.605,��,6.3,�L
2021/05/05,12:30,0.625,0.925,0.583,1.134,0.798,0.374,0.649,0.606,��,9.7,�L
2021/05/05,12:40,0.627,0.924,0.586,1.134,0.801,0.375,0.649,0.607,��,9.0,�L
2021/05/05,12:50,0.624,0.925,0.585,1.135,0.800,0.374,0.650,0.606,��,7.7,�L
2021/05/05,13:00,0.625,0.926,0.584,1.133,0.801,0.373,0.649,0.607,��,6.9,�L
2021/05/05,13:10,0.623,0.926,0.585,1.133,0.800,0.372,0.649,0.607,��,7.7,�L
2021/05/05,13:20,0.625,0.927,0.588,1.132,0.798,0.371,0.649,0.606,��,8.8,�L
2021/05/05,13:30,0.625,0.927,0.585,1.134,0.801,0.372,0.647,0.608,��,6.4,�L
2021/05/05,13:40,0.626,0.927,0.586,1.134,0.801,0.372,0.649,0.607,��,7.1,�L
2021/05/05,13:50,0.625,0.926,0.585,1.134,0.801,0.374,0.649,0.607,��쐼,7.0,�L
2021/05/05,14:00,0.625,0.926,0.584,1.136,0.800,0.373,0.650,0.606,��쐼,5.3,�L
2021/05/05,14:10,0.625,0.925,0.586,1.135,0.800,0.373,0.647,0.608,��,5.9,�L
2021/05/05,14:20,0.625,0.929,0.587,1.134,0.802,0.372,0.648,0.607,��,6.3,�L
2021/05/05,14:30,0.625,0.927,0.587,1.135,0.802,0.372,0.647,0.607,��쐼,7.8,�L
2021/05/05,14:40,0.627,0.926,0.586,1.135,0.802,0.372,0.647,0.608,��,7.8,�L
2021/05/05,14:50,0.628,0.926,0.586,1.135,0.802,0.371,0.649,0.606,��쐼,7.9,�L
2021/05/05,15:00,0.626,0.928,0.586,1.133,0.802,0.372,0.647,0.609,��,7.0,�L
2021/05/05,15:10,0.627,0.928,0.587,1.135,0.800,0.372,0.646,0.608,��,7.5,�L
2021/05/05,15:20,0.625,0.927,0.585,1.135,0.800,0.372,0.649,0.608,��,6.3,�L
2021/05/05,15:30,0.626,0.928,0.587,1.135,0.802,0.373,0.649,0.609,��,6.4,�L
2021/05/05,15:40,0.626,0.927,0.586,1.136,0.803,0.371,0.647,0.608,��,6.3,�L
2021/05/05,15:50,0.626,0.927,0.586,1.135,0.801,0.372,0.647,0.609,��,7.2,�L
2021/05/05,16:00,0.626,0.928,0.586,1.134,0.803,0.372,0.647,0.608,��,6.3,�L
2021/05/05,16:10,0.626,0.925,0.588,1.134,0.803,0.373,0.646,0.608,��,6.3,�L
2021/05/05,16:20,0.625,0.927,0.588,1.135,0.799,0.374,0.649,0.608,��,6.4,�L
2021/05/05,16:30,0.627,0.926,0.587,1.136,0.801,0.373,0.649,0.607,��,5.8,�L
2021/05/05,16:40,0.627,0.926,0.587,1.135,0.802,0.375,0.649,0.608,��쓌,5.7,�L
2021/05/05,16:50,0.628,0.927,0.587,1.136,0.801,0.375,0.647,0.606,��쓌,7.8,�L
2021/05/05,17:00,0.629,0.926,0.588,1.134,0.801,0.375,0.647,0.608,��,7.7,�L
2021/05/05,17:10,0.629,0.926,0.588,1.136,0.802,0.377,0.646,0.606,��,8.5,�L
2021/05/05,17:20,0.629,0.924,0.590,1.136,0.799,0.376,0.647,0.606,��,8.9,�L
2021/05/05,17:30,0.630,0.924,0.590,1.136,0.800,0.376,0.648,0.606,��,9.1,�L
2021/05/05,17:40,0.629,0.924,0.589,1.138,0.800,0.377,0.648,0.604,��,9.7,�L
2021/05/05,17:50,0.631,0.922,0.588,1.134,0.799,0.378,0.646,0.605,��,11.4,�L
2021/05/05,18:00,0.626,0.920,0.587,1.135,0.798,0.376,0.646,0.605,��,11.0,�L
2021/05/05,18:10,0.627,0.921,0.584,1.133,0.797,0.377,0.645,0.605,��,10.3,�L
2021/05/05,18:20,0.624,0.919,0.584,1.129,0.796,0.376,0.643,0.603,��,10.2,�L
2021/05/05,18:30,0.624,0.917,0.584,1.130,0.794,0.375,0.646,0.603,��,8.8,�L
2021/05/05,18:40,0.622,0.916,0.584,1.128,0.795,0.375,0.644,0.604,��,9.0,�L
2021/05/05,18:50,0.622,0.916,0.584,1.130,0.793,0.373,0.642,0.601,��,8.7,�L
2021/05/05,19:00,0.622,0.914,0.583,1.128,0.790,0.374,0.643,0.602,��,7.5,�L
2021/05/05,19:10,0.621,0.915,0.582,1.126,0.791,0.375,0.645,0.603,��,8.6,�L
2021/05/05,19:20,0.619,0.912,0.581,1.126,0.791,0.374,0.642,0.603,��,9.7,�L
2021/05/05,19:30,0.619,0.914,0.580,1.126,0.790,0.372,0.644,0.602,��,8.5,�L
2021/05/05,19:40,0.619,0.911,0.580,1.124,0.788,0.372,0.644,0.604,��,8.8,�L
2021/05/05,19:50,0.618,0.910,0.581,1.126,0.789,0.373,0.642,0.602,��,7.4,�L
2021/05/05,20:00,0.615,0.912,0.579,1.123,0.790,0.371,0.642,0.603,��쓌,8.0,��
2021/05/05,20:10,0.617,0.914,0.578,1.123,0.788,0.369,0.641,0.603,��,7.9,��
2021/05/05,20:20,0.614,0.912,0.579,1.123,0.788,0.372,0.642,0.602,��,8.4,�L
2021/05/05,20:30,0.615,0.912,0.578,1.121,0.787,0.370,0.642,0.603,��,8.1,�L
2021/05/05,20:40,0.615,0.912,0.576,1.122,0.786,0.369,0.644,0.604,��,9.3,�L
2021/05/05,20:50,0.616,0.910,0.578,1.122,0.787,0.369,0.645,0.604,��,8.3,�L
2021/05/05,21:00,0.616,0.913,0.579,1.123,0.787,0.369,0.643,0.602,��,6.6,�L
2021/05/05,21:10,0.618,0.912,0.579,1.125,0.789,0.372,0.644,0.604,��,5.4,�L
2021/05/05,21:20,0.618,0.913,0.579,1.125,0.790,0.372,0.643,0.603,��,5.5,�L
2021/05/05,21:30,0.616,0.911,0.580,1.124,0.789,0.371,0.644,0.604,��,6.2,�L
2021/05/05,21:40,0.616,0.912,0.578,1.123,0.788,0.371,0.643,0.603,��,5.2,�L
2021/05/05,21:50,0.615,0.911,0.578,1.123,0.788,0.372,0.643,0.603,��,5.0,��
2021/05/05,22:00,0.613,0.909,0.578,1.123,0.787,0.370,0.642,0.603,��,5.4,��
2021/05/05,22:10,0.614,0.910,0.580,1.123,0.788,0.371,0.644,0.603,��,4.7,��
2021/05/05,22:20,0.615,0.911,0.577,1.122,0.788,0.370,0.643,0.602,��,5.1,��
2021/05/05,22:30,0.615,0.912,0.577,1.120,0.788,0.370,0.642,0.602,��,4.7,��
2021/05/05,22:40,0.613,0.908,0.576,1.121,0.787,0.370,0.642,0.602,��,2.5,��
2021/05/05,22:50,0.613,0.909,0.577,1.120,0.787,0.370,0.643,0.602,��,2.2,��
2021/05/05,23:00,0.614,0.909,0.578,1.121,0.788,0.371,0.642,0.602,��쐼,1.7,��
2021/05/05,23:10,0.614,0.910,0.576,1.121,0.788,0.369,0.641,0.603,��쐼,2.6,��
2021/05/05,23:20,0.612,0.910,0.576,1.121,0.788,0.370,0.643,0.603,��쐼,6.0,��
2021/05/05,23:30,0.614,0.912,0.577,1.120,0.789,0.370,0.643,0.603,�쐼,8.2,��
2021/05/05,23:40,0.612,0.910,0.576,1.122,0.788,0.371,0.645,0.602,�쐼,6.8,��
2021/05/05,23:50,0.615,0.909,0.576,1.121,0.789,0.369,0.644,0.601,�쐼,5.6,��
